• In Netherlands
  • List of Countries
  • For 7 days
  • Water Temperature
  • Satellite Maps
  • Weather Map
  • Weather Widgets
  • user-avatar
    Login

    Hourly Weather Vanadzor

    Today, 23 February, Thursday

    Time Temperature Precipitation Wind Pressure Humidity
    00:00 -6°C° 0.1 mm 2 mps 631 mmHg 92%
    01:00 -6°C° 0.2 mm 2 mps 631 mmHg 93%
    02:00 -6°C° 0.2 mm 2 mps 631 mmHg 93%
    03:00 -4°C° 0 mm 2 mps 631 mmHg 95%
    04:00 -4°C° 0.5 mm 2 mps 631 mmHg 95%
    05:00 -5°C° 0.5 mm 2 mps 632 mmHg 96%
    06:00 -3°C° 0.5 mm 1 mps 632 mmHg 96%
    07:00 -3°C° 0.1 mm 1 mps 632 mmHg 95%
    08:00 -2°C° 0.1 mm 1 mps 633 mmHg 94%
    09:00 -1°C° 0 mm 1 mps 633 mmHg 92%
    10:00 -2°C° 0 mm 2 mps 633 mmHg 90%
    11:00 -1°C° 0 mm 2 mps 633 mmHg 88%
    12:00 -1°C° 0 mm 2 mps 633 mmHg 86%
    13:00 +1°C° 0 mm 2 mps 633 mmHg 86%
    14:00 +1°C° 0 mm 2 mps 633 mmHg 86%
    15:00 +1°C° 0 mm 2 mps 633 mmHg 86%
    16:00 -2°C° 0 mm 2 mps 633 mmHg 88%
    17:00 -3°C° 0 mm 2 mps 633 mmHg 91%
    18:00 -2°C° 0 mm 1 mps 633 mmHg 94%
    19:00 -5°C° 0 mm 2 mps 633 mmHg 94%
    20:00 -6°C° 0 mm 2 mps 633 mmHg 94%
    21:00 -7°C° 0 mm 2 mps 633 mmHg 94%
    22:00 -7°C° 0 mm 2 mps 633 mmHg 94%
    23:00 -8°C° 0 mm 2 mps 634 mmHg 94%

    Tomorrow, 24 February, Friday

    Time Temperature Precipitation Wind Pressure Humidity
    00:00 -8°C° 0 mm 2 mps 634 mmHg 94%
    01:00 -8°C° 0 mm 2 mps 634 mmHg 94%
    02:00 -8°C° 0 mm 2 mps 634 mmHg 93%
    03:00 -8°C° 0 mm 2 mps 634 mmHg 93%
    04:00 -8°C° 0 mm 2 mps 634 mmHg 93%
    05:00 -8°C° 0 mm 2 mps 634 mmHg 93%
    06:00 -9°C° 0 mm 2 mps 634 mmHg 93%
    07:00 -7°C° 0 mm 2 mps 634 mmHg 91%
    08:00 -5°C° 0 mm 2 mps 635 mmHg 90%
    09:00 -2°C° 0 mm 2 mps 636 mmHg 88%
    10:00 -1°C° 0 mm 2 mps 636 mmHg 87%
    11:00 +1°C° 0 mm 2 mps 636 mmHg 86%
    12:00 +3°C° 0 mm 2 mps 637 mmHg 84%
    13:00 +3°C° 0 mm 2 mps 636 mmHg 85%
    14:00 +3°C° 0 mm 2 mps 636 mmHg 85%
    15:00 +4°C° 0 mm 1 mps 636 mmHg 86%
    16:00 +2°C° 0 mm 1 mps 636 mmHg 89%
    17:00 -1°C° 0 mm 1 mps 635 mmHg 92%
    18:00 -3°C° 0 mm 1 mps 635 mmHg 95%
    19:00 -4°C° 0 mm 1 mps 635 mmHg 94%
    20:00 -6°C° 0 mm 1 mps 635 mmHg 94%
    21:00 -7°C° 0 mm 2 mps 635 mmHg 93%
    22:00 -7°C° 0 mm 2 mps 635 mmHg 92%
    23:00 -7°C° 0 mm 1 mps 635 mmHg 92%

    Day after tomorrow, 25 February, Saturday

    Time Temperature Precipitation Wind Pressure Humidity
    00:00 -7°C° 0 mm 1 mps 635 mmHg 92%
    01:00 -7°C° 0 mm 1 mps 635 mmHg 92%
    02:00 -7°C° 0 mm 1 mps 635 mmHg 92%
    03:00 -7°C° 0 mm 1 mps 635 mmHg 92%
    04:00 -7°C° 0 mm 1 mps 635 mmHg 92%
    05:00 -8°C° 0 mm 1 mps 635 mmHg 92%
    06:00 -8°C° 0 mm 1 mps 635 mmHg 92%
    07:00 -4°C° 0 mm 1 mps 636 mmHg 89%
    08:00 -1°C° 0 mm 1 mps 638 mmHg 87%
    09:00 +1°C° 0 mm 1 mps 639 mmHg 85%
    10:00 +3°C° 0 mm 1 mps 638 mmHg 84%
    11:00 +4°C° 0 mm 1 mps 638 mmHg 83%
    12:00 +5°C° 0 mm 1 mps 638 mmHg 83%
    13:00 +5°C° 0 mm 1 mps 638 mmHg 83%
    14:00 +5°C° 0 mm 1 mps 637 mmHg 84%
    15:00 +5°C° 0 mm 1 mps 637 mmHg 84%
    16:00 +2°C° 0 mm 1 mps 636 mmHg 88%
    17:00 -1°C° 0 mm 1 mps 635 mmHg 91%
    18:00 -4°C° 0 mm 1 mps 634 mmHg 95%
    19:00 -7°C° 0 mm 2 mps 634 mmHg 93%
    20:00 -7°C° 0 mm 2 mps 634 mmHg 92%
    21:00 -7°C° 0 mm 2 mps 635 mmHg 90%
    22:00 -7°C° 0 mm 2 mps 635 mmHg 90%
    23:00 -7°C° 0 mm 2 mps 635 mmHg 90%

    26 February, Sunday

    Time Temperature Precipitation Wind Pressure Humidity
    00:00 -7°C° 0 mm 2 mps 635 mmHg 90%
    01:00 -7°C° 0 mm 2 mps 634 mmHg 89%
    02:00 -7°C° 0 mm 2 mps 634 mmHg 89%
    03:00 -7°C° 0 mm 2 mps 634 mmHg 89%
    04:00 -7°C° 0 mm 2 mps 634 mmHg 89%
    05:00 -7°C° 0 mm 2 mps 634 mmHg 88%
    06:00 -6°C° 0 mm 2 mps 634 mmHg 88%
    07:00 -4°C° 0 mm 2 mps 634 mmHg 86%
    08:00 -2°C° 0 mm 2 mps 635 mmHg 84%
    09:00 +1°C° 0 mm 2 mps 635 mmHg 81%
    10:00 +2°C° 0 mm 2 mps 635 mmHg 81%
    11:00 +3°C° 0 mm 2 mps 635 mmHg 80%
    12:00 +5°C° 0 mm 2 mps 635 mmHg 80%
    13:00 +5°C° 0 mm 2 mps 635 mmHg 81%
    14:00 +5°C° 0 mm 2 mps 634 mmHg 82%
    15:00 +6°C° 0 mm 1 mps 634 mmHg 83%
    16:00 +4°C° 0 mm 1 mps 634 mmHg 86%
    17:00 +2°C° 0 mm 1 mps 633 mmHg 90%
    18:00 0°C° 0 mm 1 mps 633 mmHg 94%
    19:00 -1°C° 0 mm 1 mps 633 mmHg 94%
    20:00 -1°C° 0 mm 1 mps 634 mmHg 93%
    21:00 -2°C° 0 mm 1 mps 634 mmHg 93%
    22:00 -2°C° 0.1 mm 1 mps 634 mmHg 92%
    23:00 -1°C° 0.1 mm 1 mps 634 mmHg 92%

    27 February, Monday

    Time Temperature Precipitation Wind Pressure Humidity
    00:00 -1°C° 0.1 mm 1 mps 635 mmHg 92%
    01:00 -1°C° 0.2 mm 0 mps 635 mmHg 93%
    02:00 -1°C° 0.2 mm 0 mps 635 mmHg 94%
    03:00 -1°C° 0.2 mm 0 mps 636 mmHg 95%
    04:00 -1°C° 0.4 mm 0 mps 636 mmHg 96%
    05:00 -1°C° 0.4 mm 0 mps 636 mmHg 96%
    06:00 -1°C° 0.4 mm 0 mps 636 mmHg 97%
    07:00 -1°C° 0.2 mm 0 mps 636 mmHg 96%
    08:00 +1°C° 0.2 mm 1 mps 637 mmHg 95%
    09:00 +2°C° 0.2 mm 1 mps 637 mmHg 93%
    10:00 +2°C° 0.1 mm 1 mps 637 mmHg 92%
    11:00 +3°C° 0.1 mm 1 mps 636 mmHg 92%
    12:00 +3°C° 0.1 mm 1 mps 636 mmHg 91%
    13:00 +4°C° 0.1 mm 1 mps 636 mmHg 91%
    14:00 +4°C° 0.1 mm 1 mps 636 mmHg 91%
    15:00 +4°C° 0.1 mm 1 mps 635 mmHg 91%
    16:00 +2°C° 0 mm 1 mps 635 mmHg 94%
    17:00 +1°C° 0 mm 1 mps 634 mmHg 96%
    18:00 -2°C° 0 mm 0 mps 634 mmHg 99%
    19:00 -3°C° 0 mm 0 mps 634 mmHg 98%
    20:00 -3°C° 0 mm 0 mps 634 mmHg 98%
    21:00 -3°C° 0 mm 1 mps 634 mmHg 98%
    22:00 -3°C° 0 mm 1 mps 634 mmHg 97%
    23:00 -3°C° 0 mm 1 mps 634 mmHg 96%

    28 February, Tuesday

    Time Temperature Precipitation Wind Pressure Humidity
    00:00 -3°C° 0 mm 1 mps 634 mmHg 95%
    01:00 -3°C° 0 mm 1 mps 634 mmHg 94%
    02:00 -3°C° 0 mm 1 mps 634 mmHg 94%
    03:00 -3°C° 0 mm 1 mps 634 mmHg 93%
    04:00 -3°C° 0 mm 1 mps 634 mmHg 93%
    05:00 -4°C° 0 mm 1 mps 634 mmHg 93%
    06:00 -4°C° 0 mm 1 mps 634 mmHg 93%
    07:00 -2°C° 0 mm 1 mps 635 mmHg 90%
    08:00 0°C° 0 mm 1 mps 636 mmHg 88%
    09:00 +3°C° 0 mm 1 mps 637 mmHg 85%
    10:00 +4°C° 0 mm 1 mps 637 mmHg 83%
    11:00 +5°C° 0 mm 1 mps 637 mmHg 82%
    12:00 +6°C° 0 mm 1 mps 637 mmHg 80%
    13:00 +6°C° 0 mm 1 mps 636 mmHg 80%
    14:00 +6°C° 0 mm 1 mps 636 mmHg 80%
    15:00 +6°C° 0 mm 1 mps 636 mmHg 81%
    16:00 +4°C° 0 mm 1 mps 635 mmHg 86%
    17:00 +1°C° 0 mm 1 mps 635 mmHg 91%
    18:00 -1°C° 0 mm 1 mps 634 mmHg 96%
    19:00 -2°C° 0 mm 1 mps 634 mmHg 95%
    20:00 -2°C° 0 mm 1 mps 635 mmHg 94%
    21:00 -2°C° 0 mm 1 mps 635 mmHg 93%
    22:00 -3°C° 0 mm 1 mps 635 mmHg 93%
    23:00 -3°C° 0 mm 1 mps 635 mmHg 92%
    Show more